Preview of NWS' New Version of Forecast
This preview is not operational and should not be used for support decisions.

Regional Weather Roundup (RWR)

Issued by National Weather Service (NWS)

                            
000
ASUS46 KSEW 161510
RWRWA 

WASHINGTON REGIONAL WEATHER ROUNDUP
NATIONAL WEATHER SERVICE SEATTLE WA
800 AM PDT TUE JUL 16 2019

NOTE:"FAIR" INDICATES FEW OR NO CLOUDS BELOW 12,000 FEET WITH NO 
SIGNIFICANT WEATHER AND/OR OBSTRUCTIONS TO VISIBILITY.

WAZ507-509-555>559-161600-
SEATTLE, TACOMA, EVERETT, AND VICINITY
  
CITY           SKY/WX    TMP DP  RH WIND       PRES   REMARKS
EVERETT        CLOUDY    61  57  87 N5        30.05R                  
BOEING FIELD   PTSUNNY   64  57  78 CALM      30.03R                  
RENTON         CLOUDY    65  59  81 SW5       30.03R                  
SEATAC AIRPORT PTSUNNY   64  58  80 CALM      30.04R                  
JBLM-MCCHORD   CLOUDY    64  64 100 SW5       30.03F                  
PUYALLUP       CLOUDY    64  63  94 CALM      30.04S                  
BREMERTON      CLOUDY    62  57  83 NE3       30.05R                  
JBLM-FT LEWIS  CLOUDY    63  63 100 SW3       30.03S                  
TACOMA NARROWS CLOUDY    61  58  90 W3        30.04S                  
$$
 
WAZ001-503-506-510-514-515-161600-
NORTH INTERIOR
  
CITY           SKY/WX    TMP DP  RH WIND       PRES   REMARKS
BELLINGHAM     MOSUNNY   63  56  78 S9        30.02S                  
FRIDAY HARBOR  FOG       52  52 100 CALM      30.04R VSB 1/4          
EASTSOUND      CLOUDY    59  57  94 S7        30.02R                  
PORT ANGELES   CLOUDY    57  57 100 W5        30.04S                  
EDIZ HOOK      CLOUDY    57  55  94 W5        30.04S                  
PORT TOWNSEND  FAIR      59  57  94 CALM      30.03S                  
NAS WHIDBEY    FOG       57  54  89 SW3       30.08S VSB 3/4          
ARLINGTON      MOSUNNY   60  56  86 NW5       30.04S                  
BURLINGTON     MOSUNNY   63  61  94 CALM      30.04S                  
$$
 
WAZ020-022-039-040-504-511-512-161600-
SOUTHWEST INTERIOR
  
CITY           SKY/WX    TMP DP  RH WIND       PRES   REMARKS
SHELTON        CLOUDY    60  57  89 W3        30.02S                  
OLYMPIA        PTSUNNY   61  58  90 CALM      30.04R                  
CHEHALIS       CLOUDY    61  61 100 CALM      30.05R                  
KELSO          CLOUDY    63  60  90 NW3       30.05R                  
VANCOUVER      CLOUDY    66  58  75 CALM      30.03S                  
SCAPPOOSE, OR  CLOUDY    66  60  81 CALM      30.03R                  
PORTLAND, OR   PTSUNNY   67  58  72 NW5       30.04R                  
$$
 
WAZ021-516-517-161600-
WASHINGTON COAST
  
CITY           SKY/WX    TMP DP  RH WIND       PRES   REMARKS
FORKS          CLOUDY    60  57  89 CALM      30.04S                  
HOQUIAM        CLOUDY    61  60  97 CALM      30.04S                  
ASTORIA, OR    CLOUDY    62  60  93 CALM      30.03S FOG              
$$
 
WAZ019-023-024-040-567>569-161600-
CASCADE MOUNTAINS AND COLUMBIA GORGE
  
CITY           SKY/WX    TMP DP  RH WIND       PRES   REMARKS
STAMPEDE PASS  FOG       52  50  93 VRB6      30.08S VSB 1/4          
TROUTDALE, OR  CLOUDY    67  59  75 SW5       30.03S                  
HOOD RIVER, OR CLOUDY    63  54  72 S3        30.02S                  
THE DALLES, OR CLOUDY    67  59  75 NW7       29.99S                  
$$

WAZ026-027-041>044-520-521-161600-
EAST SLOPES
  
CITY           SKY/WX    TMP DP  RH WIND       PRES   REMARKS
OMAK           CLOUDY    64  53  67 N8        29.98S                  
WENATCHEE      PTSUNNY   67  49  52 W7        29.97S                  
ELLENSBURG     PTSUNNY   66  52  60 NW13      29.99S                  
YAKIMA         CLOUDY    63  53  70 CALM      29.99S                  
SUNNYSIDE ARPT PTSUNNY   63  55  74 CALM      29.98                   
YAKIMA TC      FAIR      65  50  58 CALM      29.98S                  
$$

WAZ028-034-035-161600-
COLUMBIA BASIN
  
CITY           SKY/WX    TMP DP  RH WIND       PRES   REMARKS
EPHRATA        MOSUNNY   66  50  56 E7        29.96R                  
MOSES LAKE     MOSUNNY   68  51  54 CALM      29.97R                  
PASCO          PTSUNNY   72  55  55 SW3       29.97R                  
RICHLAND ARPT  MOSUNNY   71  55  55 S5        29.97                   
HERMISTON, OR  PTSUNNY   70  54  56 SW8       29.98R                  
$$

WAZ036>038-161600-
NORTHEAST WASHINGTON
  
CITY           SKY/WX    TMP DP  RH WIND       PRES   REMARKS
SPOKANE GEIGER PTSUNNY   59  53  80 SE5       30.02R                  
SPOKANE FELTS  LGT RAIN  60  57  89 NE5       30.02R                  
FAIRCHILD AFB  PTSUNNY   59  56  90 E6        30.01S                  
COEURDALENE,ID PTSUNNY   62  57  83 SW8       30.03R                  
DEER PARK      LGT RAIN  58  55  90 SE5       30.02R                  
$$

WAZ029>033-161600-
SOUTHEAST WASHINGTON
  
CITY           SKY/WX    TMP DP  RH WIND       PRES   REMARKS
PULLMAN        PTSUNNY   63  52  67 N3        30.04S                  
LEWISTON, ID   PTSUNNY   63  54  72 SE6       30.00R                  
WALLA WALLA    PTSUNNY   70  52  52 S10       30.00S                  
PENDLETON, OR  PTSUNNY   67  52  58 S3        30.01S                  
$$